Time,TemperatureF,DewpointF,PressureIn,WindDirection,WindDirectionDegrees,WindSpeedMPH,WindSpeedGustMPH,Humidity,HourlyPrecipIn,Conditions,Clouds,dailyrainin,SoftwareType,DateUTC
2013-09-08 00:01:00,77.3,59.4,29.77,West,265,0.0,5.0,54,0.00,,,0.00,WUHU216DAVISVP2,2013-09-08 07:01:00,
2013-09-08 00:06:00,77.3,59.4,29.77,WNW,283,2.0,5.0,54,0.00,,,0.00,WUHU216DAVISVP2,2013-09-08 07:06:00,
2013-09-08 00:11:00,77.3,59.5,29.77,WNW,293,4.0,6.0,54,0.00,,,0.00,WUHU216DAVISVP2,2013-09-08 07:11:00,
2013-09-08 00:16:00,77.2,59.4,29.77,WNW,288,5.0,7.0,54,0.00,,,0.00,WUHU216DAVISVP2,2013-09-08 07:16:00,
2013-09-08 00:21:00,77.1,59.3,29.77,WNW,288,3.0,7.0,54,0.00,,,0.00,WUHU216DAVISVP2,2013-09-08 07:21:00,
2013-09-08 00:26:00,76.8,59.6,29.77,WNW,292,4.0,5.0,55,0.00,,,0.00,WUHU216DAVISVP2,2013-09-08 07:26:00,
2013-09-08 00:31:00,76.6,59.4,29.77,WNW,294,5.0,5.0,55,0.00,,,0.00,WUHU216DAVISVP2,2013-09-08 07:31:00,
2013-09-08 00:36:00,76.3,58.9,29.77,WNW,287,4.0,7.0,55,0.00,,,0.00,WUHU216DAVISVP2,2013-09-08 07:36:00,
2013-09-08 00:41:00,76.1,59.4,29.77,WNW,292,5.0,7.0,56,0.00,,,0.00,WUHU216DAVISVP2,2013-09-08 07:41:00,
2013-09-08 00:46:00,75.8,59.2,29.78,WNW,293,4.0,7.0,56,0.00,,,0.00,WUHU216DAVISVP2,2013-09-08 07:46:00,
2013-09-08 00:51:00,75.5,59.4,29.78,WNW,290,3.0,7.0,57,0.00,,,0.00,WUHU216DAVISVP2,2013-09-08 07:51:00,
2013-09-08 00:56:00,75.3,59.2,29.78,WNW,292,3.0,7.0,57,0.00,,,0.00,WUHU216DAVISVP2,2013-09-08 07:56:00,
2013-09-08 01:01:00,75.1,59.0,29.78,WNW,293,3.0,8.0,57,0.00,,,0.00,WUHU216DAVISVP2,2013-09-08 08:01:00,
2013-09-08 01:06:00,74.8,58.7,29.77,WNW,295,9.0,9.0,57,0.00,,,0.00,WUHU216DAVISVP2,2013-09-08 08:06:00,
2013-09-08 01:11:00,74.7,58.6,29.78,WNW,295,3.0,9.0,57,0.00,,,0.00,WUHU216DAVISVP2,2013-09-08 08:11:00,
2013-09-08 01:16:00,74.6,58.5,29.78,WNW,300,5.0,8.0,57,0.00,,,0.00,WUHU216DAVISVP2,2013-09-08 08:16:00,
2013-09-08 01:21:00,74.4,58.2,29.78,NW,305,4.0,6.0,57,0.00,,,0.00,WUHU216DAVISVP2,2013-09-08 08:21:00,
2013-09-08 01:26:00,74.2,58.0,29.78,NW,309,6.0,7.0,57,0.00,,,0.00,WUHU216DAVISVP2,2013-09-08 08:26:00,
2013-09-08 01:31:00,74.1,57.4,29.77,NW,309,2.0,7.0,56,0.00,,,0.00,WUHU216DAVISVP2,2013-09-08 08:31:00,
2013-09-08 01:36:00,74.1,57.4,29.77,WNW,298,6.0,8.0,56,0.00,,,0.00,WUHU216DAVISVP2,2013-09-08 08:36:00,
2013-09-08 01:41:00,74.0,57.5,29.77,WNW,301,7.0,8.0,56,0.00,,,0.00,WUHU216DAVISVP2,2013-09-08 08:41:00,
2013-09-08 01:46:00,74.0,56.4,29.77,WNW,298,5.0,8.0,54,0.00,,,0.00,WUHU216DAVISVP2,2013-09-08 08:46:00,
2013-09-08 01:51:00,74.0,56.4,29.78,NW,309,0.0,8.0,54,0.00,,,0.00,WUHU216DAVISVP2,2013-09-08 08:51:00,
2013-09-08 01:56:00,74.0,55.9,29.77,NW,309,0.0,7.0,53,0.00,,,0.00,WUHU216DAVISVP2,2013-09-08 08:56:00,
2013-09-08 02:01:00,74.0,55.9,29.77,NW,307,5.0,6.0,53,0.00,,,0.00,WUHU216DAVISVP2,2013-09-08 09:01:00,
2013-09-08 02:06:00,74.0,55.9,29.77,NW,304,4.0,6.0,53,0.00,,,0.00,WUHU216DAVISVP2,2013-09-08 09:06:00,
2013-09-08 02:11:00,73.9,55.7,29.77,WNW,303,4.0,6.0,53,0.00,,,0.00,WUHU216DAVISVP2,2013-09-08 09:11:00,
2013-09-08 02:16:00,73.9,55.3,29.77,WNW,302,4.0,6.0,52,0.00,,,0.00,WUHU216DAVISVP2,2013-09-08 09:16:00,
2013-09-08 02:21:00,73.8,55.1,29.77,WNW,301,5.0,6.0,52,0.00,,,0.00,WUHU216DAVISVP2,2013-09-08 09:21:00,
2013-09-08 02:26:00,73.6,55.0,29.77,WNW,301,3.0,7.0,52,0.00,,,0.00,WUHU216DAVISVP2,2013-09-08 09:26:00,
2013-09-08 02:31:00,73.6,54.9,29.77,West,281,7.0,8.0,52,0.00,,,0.00,WUHU216DAVISVP2,2013-09-08 09:31:00,
2013-09-08 02:36:00,73.5,54.8,29.77,WNW,299,4.0,8.0,52,0.00,,,0.00,WUHU216DAVISVP2,2013-09-08 09:36:00,
2013-09-08 02:41:00,73.4,54.8,29.77,WNW,297,4.0,8.0,52,0.00,,,0.00,WUHU216DAVISVP2,2013-09-08 09:41:00,
2013-09-08 02:46:00,73.3,55.3,29.77,WNW,295,3.0,8.0,53,0.00,,,0.00,WUHU216DAVISVP2,2013-09-08 09:46:00,
2013-09-08 02:51:00,73.2,55.2,29.77,WNW,296,1.0,7.0,53,0.00,,,0.00,WUHU216DAVISVP2,2013-09-08 09:51:00,
2013-09-08 02:56:00,73.1,55.1,29.77,WNW,296,0.0,7.0,53,0.00,,,0.00,WUHU216DAVISVP2,2013-09-08 09:56:00,
2013-09-08 03:01:00,72.9,55.4,29.77,WNW,296,0.0,4.0,54,0.00,,,0.00,WUHU216DAVISVP2,2013-09-08 10:01:00,
2013-09-08 03:06:00,72.7,55.2,29.78,WNW,296,0.0,3.0,54,0.00,,,0.00,WUHU216DAVISVP2,2013-09-08 10:06:00,
2013-09-08 03:11:00,72.5,56.1,29.78,WNW,296,0.0,3.0,56,0.00,,,0.00,WUHU216DAVISVP2,2013-09-08 10:11:00,
2013-09-08 03:16:00,72.2,55.8,29.78,WNW,296,0.0,2.0,56,0.00,,,0.00,WUHU216DAVISVP2,2013-09-08 10:16:00,
2013-09-08 03:21:00,71.9,56.0,29.78,WNW,296,0.0,0.0,57,0.00,,,0.00,WUHU216DAVISVP2,2013-09-08 10:21:00,
2013-09-08 03:26:00,71.6,56.2,29.78,WNW,296,0.0,0.0,58,0.00,,,0.00,WUHU216DAVISVP2,2013-09-08 10:26:00,
2013-09-08 03:31:00,71.2,55.8,29.78,WNW,296,0.0,0.0,58,0.00,,,0.00,WUHU216DAVISVP2,2013-09-08 10:31:00,
2013-09-08 03:36:00,71.0,55.6,29.78,WNW,296,0.0,1.0,58,0.00,,,0.00,WUHU216DAVISVP2,2013-09-08 10:36:00,
2013-09-08 03:41:00,70.6,55.3,29.77,WNW,296,3.0,5.0,58,0.00,,,0.00,WUHU216DAVISVP2,2013-09-08 10:41:00,
2013-09-08 03:46:00,70.4,55.1,29.77,WNW,299,4.0,6.0,58,0.00,,,0.00,WUHU216DAVISVP2,2013-09-08 10:46:00,
2013-09-08 03:51:00,70.3,55.5,29.77,WNW,299,1.0,6.0,59,0.00,,,0.00,WUHU216DAVISVP2,2013-09-08 10:51:00,
2013-09-08 03:56:00,70.2,55.4,29.77,WNW,302,3.0,6.0,59,0.00,,,0.00,WUHU216DAVISVP2,2013-09-08 10:56:00,
2013-09-08 04:01:00,70.1,55.3,29.77,WNW,302,6.0,6.0,59,0.00,,,0.00,WUHU216DAVISVP2,2013-09-08 11:01:00,
2013-09-08 04:06:00,70.0,55.2,29.77,WNW,303,4.0,6.0,59,0.00,,,0.00,WUHU216DAVISVP2,2013-09-08 11:06:00,
2013-09-08 04:11:00,69.9,55.1,29.77,NW,304,0.0,6.0,59,0.00,,,0.00,WUHU216DAVISVP2,2013-09-08 11:11:00,
2013-09-08 04:16:00,69.8,55.0,29.77,NW,304,3.0,6.0,59,0.00,,,0.00,WUHU216DAVISVP2,2013-09-08 11:16:00,
2013-09-08 04:21:00,69.8,55.5,29.77,NW,304,0.0,6.0,60,0.00,,,0.00,WUHU216DAVISVP2,2013-09-08 11:21:00,
2013-09-08 04:26:00,69.7,55.4,29.77,NW,304,0.0,5.0,60,0.00,,,0.00,WUHU216DAVISVP2,2013-09-08 11:26:00,
2013-09-08 04:31:00,69.5,55.2,29.78,NW,304,3.0,5.0,60,0.00,,,0.00,WUHU216DAVISVP2,2013-09-08 11:31:00,
2013-09-08 04:36:00,69.3,54.8,29.77,NW,304,1.0,5.0,60,0.00,,,0.00,WUHU216DAVISVP2,2013-09-08 11:36:00,
2013-09-08 04:41:00,69.1,55.1,29.77,NW,304,0.0,5.0,61,0.00,,,0.00,WUHU216DAVISVP2,2013-09-08 11:41:00,
2013-09-08 04:46:00,69.0,55.0,29.77,NW,304,2.0,5.0,61,0.00,,,0.00,WUHU216DAVISVP2,2013-09-08 11:46:00,
2013-09-08 04:51:00,68.8,54.8,29.77,NW,304,0.0,5.0,61,0.00,,,0.00,WUHU216DAVISVP2,2013-09-08 11:51:00,
2013-09-08 04:56:00,68.7,55.2,29.77,NW,304,5.0,5.0,62,0.00,,,0.00,WUHU216DAVISVP2,2013-09-08 11:56:00,
2013-09-08 05:01:00,68.6,55.1,29.78,NW,304,2.0,5.0,62,0.00,,,0.00,WUHU216DAVISVP2,2013-09-08 12:01:00,
2013-09-08 05:06:00,68.5,55.4,29.78,NW,304,3.0,4.0,63,0.00,,,0.00,WUHU216DAVISVP2,2013-09-08 12:06:00,
2013-09-08 05:11:00,68.3,55.2,29.78,NW,304,0.0,4.0,63,0.00,,,0.00,WUHU216DAVISVP2,2013-09-08 12:11:00,
2013-09-08 05:16:00,68.2,54.7,29.78,NW,304,3.0,4.0,62,0.00,,,0.00,WUHU216DAVISVP2,2013-09-08 12:16:00,
2013-09-08 05:21:00,68.1,55.2,29.78,NW,304,0.0,4.0,63,0.00,,,0.00,WUHU216DAVISVP2,2013-09-08 12:21:00,
2013-09-08 05:26:00,68.0,55.1,29.78,NW,304,3.0,4.0,63,0.00,,,0.00,WUHU216DAVISVP2,2013-09-08 12:26:00,
2013-09-08 05:31:00,67.9,55.0,29.78,NW,304,0.0,4.0,63,0.00,,,0.00,WUHU216DAVISVP2,2013-09-08 12:31:00,
2013-09-08 05:36:00,67.8,54.9,29.78,NW,304,0.0,4.0,63,0.00,,,0.00,WUHU216DAVISVP2,2013-09-08 12:36:00,
2013-09-08 05:41:00,67.7,55.3,29.78,NW,304,1.0,4.0,64,0.00,,,0.00,WUHU216DAVISVP2,2013-09-08 12:41:00,
2013-09-08 05:46:00,67.6,55.6,29.78,NW,304,0.0,3.0,65,0.00,,,0.00,WUHU216DAVISVP2,2013-09-08 12:46:00,
2013-09-08 05:51:00,67.4,55.2,29.78,NW,304,0.0,3.0,65,0.00,,,0.00,WUHU216DAVISVP2,2013-09-08 12:51:00,
2013-09-08 05:56:00,67.3,55.1,29.78,NW,305,0.0,5.0,65,0.00,,,0.00,WUHU216DAVISVP2,2013-09-08 12:56:00,
2013-09-08 06:01:00,67.1,54.9,29.78,NW,305,3.0,5.0,65,0.00,,,0.00,WUHU216DAVISVP2,2013-09-08 13:01:00,
2013-09-08 06:06:00,67.0,55.3,29.78,NW,305,0.0,5.0,66,0.00,,,0.00,WUHU216DAVISVP2,2013-09-08 13:06:00,
2013-09-08 06:11:00,66.9,55.3,29.79,NW,305,0.0,2.0,66,0.00,,,0.00,WUHU216DAVISVP2,2013-09-08 13:11:00,
2013-09-08 06:16:00,66.8,55.3,29.79,NW,305,0.0,0.0,66,0.00,,,0.00,WUHU216DAVISVP2,2013-09-08 13:16:00,
2013-09-08 06:21:00,66.7,55.0,29.79,NW,305,0.0,0.0,66,0.00,,,0.00,WUHU216DAVISVP2,2013-09-08 13:21:00,
2013-09-08 06:26:00,66.7,55.6,29.79,NW,305,0.0,1.0,67,0.00,,,0.00,WUHU216DAVISVP2,2013-09-08 13:26:00,
2013-09-08 06:31:00,66.5,55.4,29.80,NW,305,0.0,1.0,67,0.00,,,0.00,WUHU216DAVISVP2,2013-09-08 13:31:00,
2013-09-08 06:36:00,66.3,55.6,29.80,NW,305,0.0,0.0,68,0.00,,,0.00,WUHU216DAVISVP2,2013-09-08 13:36:00,
2013-09-08 06:42:00,66.1,55.8,29.80,NW,305,0.0,0.0,69,0.00,,,0.00,WUHU216DAVISVP2,2013-09-08 13:42:00,
2013-09-08 06:47:00,65.9,55.6,29.80,NW,305,0.0,0.0,69,0.00,,,0.00,WUHU216DAVISVP2,2013-09-08 13:47:00,
2013-09-08 06:52:00,65.8,55.5,29.80,NW,305,0.0,0.0,69,0.00,,,0.00,WUHU216DAVISVP2,2013-09-08 13:52:00,
2013-09-08 06:57:00,65.7,55.4,29.80,NW,305,0.0,0.0,69,0.00,,,0.00,WUHU216DAVISVP2,2013-09-08 13:57:00,
2013-09-08 07:02:00,65.5,55.6,29.80,NW,305,0.0,0.0,70,0.00,,,0.00,WUHU216DAVISVP2,2013-09-08 14:02:00,
2013-09-08 07:07:00,65.4,55.9,29.80,NW,305,0.0,0.0,71,0.00,,,0.00,WUHU216DAVISVP2,2013-09-08 14:07:00,
2013-09-08 07:12:00,65.3,55.8,29.80,NW,305,0.0,0.0,71,0.00,,,0.00,WUHU216DAVISVP2,2013-09-08 14:12:00,
2013-09-08 07:17:00,65.2,56.1,29.80,NW,305,0.0,1.0,72,0.00,,,0.00,WUHU216DAVISVP2,2013-09-08 14:17:00,
2013-09-08 07:22:00,65.2,56.1,29.81,NW,305,0.0,1.0,72,0.00,,,0.00,WUHU216DAVISVP2,2013-09-08 14:22:00,
2013-09-08 07:27:00,65.2,55.7,29.81,NW,305,0.0,0.0,71,0.00,,,0.00,WUHU216DAVISVP2,2013-09-08 14:27:00,
2013-09-08 07:32:00,65.2,55.7,29.81,NW,305,0.0,0.0,71,0.00,,,0.00,WUHU216DAVISVP2,2013-09-08 14:32:00,
2013-09-08 07:37:00,65.3,55.8,29.81,NW,305,0.0,0.0,71,0.00,,,0.00,WUHU216DAVISVP2,2013-09-08 14:37:00,
2013-09-08 07:42:00,65.4,55.9,29.81,NW,305,3.0,3.0,71,0.00,,,0.00,WUHU216DAVISVP2,2013-09-08 14:42:00,
2013-09-08 07:47:00,65.5,56.4,29.81,NW,305,2.0,3.0,72,0.00,,,0.00,WUHU216DAVISVP2,2013-09-08 14:47:00,
2013-09-08 07:52:00,65.7,55.8,29.81,NW,305,0.0,3.0,70,0.00,,,0.00,WUHU216DAVISVP2,2013-09-08 14:52:00,
2013-09-08 07:57:00,66.0,55.7,29.81,NW,305,2.0,4.0,69,0.00,,,0.00,WUHU216DAVISVP2,2013-09-08 14:57:00,
2013-09-08 08:02:00,66.5,55.4,29.81,NW,305,5.0,5.0,67,0.00,,,0.00,WUHU216DAVISVP2,2013-09-08 15:02:00,
2013-09-08 08:07:00,67.0,55.9,29.81,NW,305,3.0,5.0,67,0.00,,,0.00,WUHU216DAVISVP2,2013-09-08 15:07:00,
2013-09-08 08:12:00,67.6,56.0,29.81,NW,306,4.0,6.0,66,0.00,,,0.00,WUHU216DAVISVP2,2013-09-08 15:12:00,
2013-09-08 08:17:00,68.3,56.3,29.81,NW,306,2.0,6.0,65,0.00,,,0.00,WUHU216DAVISVP2,2013-09-08 15:17:00,
2013-09-08 08:22:00,68.8,56.3,29.81,NW,306,2.0,5.0,64,0.00,,,0.00,WUHU216DAVISVP2,2013-09-08 15:22:00,
2013-09-08 08:27:00,69.4,56.9,29.81,NW,306,0.0,4.0,64,0.00,,,0.00,WUHU216DAVISVP2,2013-09-08 15:27:00,
2013-09-08 08:32:00,69.9,56.9,29.81,NW,306,0.0,3.0,63,0.00,,,0.00,WUHU216DAVISVP2,2013-09-08 15:32:00,
2013-09-08 08:37:00,70.4,57.4,29.81,NW,306,0.0,1.0,63,0.00,,,0.00,WUHU216DAVISVP2,2013-09-08 15:37:00,
2013-09-08 08:42:00,71.0,58.0,29.81,NW,306,0.0,1.0,63,0.00,,,0.00,WUHU216DAVISVP2,2013-09-08 15:42:00,
2013-09-08 08:47:00,71.7,57.7,29.81,NW,306,1.0,3.0,61,0.00,,,0.00,WUHU216DAVISVP2,2013-09-08 15:47:00,
2013-09-08 08:52:00,72.5,57.5,29.81,NW,306,1.0,3.0,59,0.00,,,0.00,WUHU216DAVISVP2,2013-09-08 15:52:00,
2013-09-08 08:57:00,73.3,57.3,29.81,NW,306,0.0,4.0,57,0.00,,,0.00,WUHU216DAVISVP2,2013-09-08 15:57:00,
2013-09-08 09:02:00,74.0,57.5,29.81,NW,306,0.0,4.0,56,0.00,,,0.00,WUHU216DAVISVP2,2013-09-08 16:02:00,
2013-09-08 09:07:00,74.8,57.7,29.81,NW,306,0.0,4.0,55,0.00,,,0.00,WUHU216DAVISVP2,2013-09-08 16:07:00,
2013-09-08 09:12:00,75.4,57.2,29.80,NW,306,0.0,4.0,53,0.00,,,0.00,WUHU216DAVISVP2,2013-09-08 16:12:00,
2013-09-08 09:17:00,76.0,56.7,29.81,NW,306,0.0,4.0,51,0.00,,,0.00,WUHU216DAVISVP2,2013-09-08 16:17:00,
2013-09-08 09:22:00,76.7,56.8,29.81,NW,306,0.0,3.0,50,0.00,,,0.00,WUHU216DAVISVP2,2013-09-08 16:22:00,
2013-09-08 09:27:00,77.3,57.3,29.81,NW,306,0.0,4.0,50,0.00,,,0.00,WUHU216DAVISVP2,2013-09-08 16:27:00,
2013-09-08 09:32:00,77.9,56.7,29.81,NW,306,0.0,4.0,48,0.00,,,0.00,WUHU216DAVISVP2,2013-09-08 16:32:00,
2013-09-08 09:37:00,78.5,58.4,29.81,NW,306,0.0,3.0,50,0.00,,,0.00,WUHU216DAVISVP2,2013-09-08 16:37:00,
2013-09-08 09:42:00,79.2,57.2,29.81,NW,306,0.0,1.0,47,0.00,,,0.00,WUHU216DAVISVP2,2013-09-08 16:42:00,
2013-09-08 09:47:00,79.9,57.3,29.81,NW,306,0.0,1.0,46,0.00,,,0.00,WUHU216DAVISVP2,2013-09-08 16:47:00,
2013-09-08 09:52:00,80.6,57.3,29.81,NW,306,0.0,4.0,45,0.00,,,0.00,WUHU216DAVISVP2,2013-09-08 16:52:00,
2013-09-08 09:57:00,81.2,57.2,29.81,NW,306,0.0,4.0,44,0.00,,,0.00,WUHU216DAVISVP2,2013-09-08 16:57:00,
2013-09-08 10:02:00,81.8,57.8,29.80,NW,306,0.0,1.0,44,0.00,,,0.00,WUHU216DAVISVP2,2013-09-08 17:02:00,
2013-09-08 10:07:00,82.2,58.1,29.80,NW,306,0.0,1.0,44,0.00,,,0.00,WUHU216DAVISVP2,2013-09-08 17:07:00,
2013-09-08 10:12:00,82.8,58.0,29.80,NW,306,0.0,0.0,43,0.00,,,0.00,WUHU216DAVISVP2,2013-09-08 17:12:00,
2013-09-08 10:17:00,83.3,58.5,29.81,NW,306,0.0,1.0,43,0.00,,,0.00,WUHU216DAVISVP2,2013-09-08 17:17:00,
2013-09-08 10:22:00,83.8,58.9,29.80,NW,306,0.0,1.0,43,0.00,,,0.00,WUHU216DAVISVP2,2013-09-08 17:22:00,
2013-09-08 10:27:00,84.3,58.7,29.80,NW,306,0.0,3.0,42,0.00,,,0.00,WUHU216DAVISVP2,2013-09-08 17:27:00,
2013-09-08 10:32:00,84.7,56.9,29.80,WNW,295,4.0,5.0,39,0.00,,,0.00,WUHU216DAVISVP2,2013-09-08 17:32:00,
2013-09-08 10:37:00,84.9,56.4,29.80,WNW,295,0.0,5.0,38,0.00,,,0.00,WUHU216DAVISVP2,2013-09-08 17:37:00,
2013-09-08 10:42:00,85.3,57.5,29.80,WNW,303,0.0,6.0,39,0.00,,,0.00,WUHU216DAVISVP2,2013-09-08 17:42:00,
2013-09-08 10:47:00,85.6,57.7,29.80,WNW,303,0.0,6.0,39,0.00,,,0.00,WUHU216DAVISVP2,2013-09-08 17:47:00,
2013-09-08 10:52:00,85.9,57.3,29.80,WNW,303,3.0,4.0,38,0.00,,,0.00,WUHU216DAVISVP2,2013-09-08 17:52:00,
2013-09-08 10:57:00,86.1,57.5,29.80,WNW,292,0.0,6.0,38,0.00,,,0.00,WUHU216DAVISVP2,2013-09-08 17:57:00,
2013-09-08 11:02:00,86.3,59.1,29.79,WNW,292,0.0,6.0,40,0.00,,,0.00,WUHU216DAVISVP2,2013-09-08 18:02:00,
2013-09-08 11:07:00,86.5,58.6,29.79,WNW,292,0.0,4.0,39,0.00,,,0.00,WUHU216DAVISVP2,2013-09-08 18:07:00,
2013-09-08 11:12:00,86.7,58.0,29.79,NW,309,5.0,6.0,38,0.00,,,0.00,WUHU216DAVISVP2,2013-09-08 18:12:00,
2013-09-08 11:17:00,86.9,58.2,29.79,NW,304,1.0,7.0,38,0.00,,,0.00,WUHU216DAVISVP2,2013-09-08 18:17:00,
2013-09-08 11:22:00,87.2,58.4,29.79,NW,306,0.0,7.0,38,0.00,,,0.00,WUHU216DAVISVP2,2013-09-08 18:22:00,
2013-09-08 11:27:00,87.6,56.5,29.79,NW,304,0.0,5.0,35,0.00,,,0.00,WUHU216DAVISVP2,2013-09-08 18:27:00,
2013-09-08 11:32:00,88.0,56.9,29.79,NW,304,5.0,6.0,35,0.00,,,0.00,WUHU216DAVISVP2,2013-09-08 18:32:00,
2013-09-08 11:37:00,88.2,57.0,29.79,WNW,300,0.0,6.0,35,0.00,,,0.00,WUHU216DAVISVP2,2013-09-08 18:37:00,
2013-09-08 11:42:00,88.4,56.4,29.79,WNW,300,0.0,6.0,34,0.00,,,0.00,WUHU216DAVISVP2,2013-09-08 18:42:00,
2013-09-08 11:47:00,88.6,57.4,29.79,WNW,300,5.0,5.0,35,0.00,,,0.00,WUHU216DAVISVP2,2013-09-08 18:47:00,
2013-09-08 11:52:00,89.0,56.2,29.78,WNW,302,5.0,5.0,33,0.00,,,0.00,WUHU216DAVISVP2,2013-09-08 18:52:00,
2013-09-08 11:57:00,89.3,57.3,29.78,NW,306,0.0,6.0,34,0.00,,,0.00,WUHU216DAVISVP2,2013-09-08 18:57:00,
2013-09-08 12:02:00,89.6,57.4,29.78,NW,306,1.0,6.0,34,0.00,,,0.00,WUHU216DAVISVP2,2013-09-08 19:02:00,
2013-09-08 12:07:00,90.1,57.0,29.78,NW,311,0.0,7.0,33,0.00,,,0.00,WUHU216DAVISVP2,2013-09-08 19:07:00,
2013-09-08 12:12:00,90.4,58.1,29.78,WNW,291,6.0,8.0,34,0.00,,,0.00,WUHU216DAVISVP2,2013-09-08 19:12:00,
2013-09-08 12:17:00,90.5,56.5,29.78,WNW,298,4.0,8.0,32,0.00,,,0.00,WUHU216DAVISVP2,2013-09-08 19:17:00,
2013-09-08 12:22:00,90.6,57.5,29.77,NW,312,2.0,9.0,33,0.00,,,0.00,WUHU216DAVISVP2,2013-09-08 19:22:00,
2013-09-08 12:27:00,90.8,56.8,29.77,West,270,0.0,9.0,32,0.00,,,0.00,WUHU216DAVISVP2,2013-09-08 19:27:00,
2013-09-08 12:32:00,91.0,56.2,29.77,WNW,288,6.0,7.0,31,0.00,,,0.00,WUHU216DAVISVP2,2013-09-08 19:32:00,
2013-09-08 12:37:00,91.1,55.3,29.77,WNW,289,4.0,9.0,30,0.00,,,0.00,WUHU216DAVISVP2,2013-09-08 19:37:00,
2013-09-08 12:42:00,91.3,58.1,29.77,WNW,303,0.0,9.0,33,0.00,,,0.00,WUHU216DAVISVP2,2013-09-08 19:42:00,
2013-09-08 12:47:00,91.7,56.7,29.77,West,271,7.0,8.0,31,0.00,,,0.00,WUHU216DAVISVP2,2013-09-08 19:47:00,
2013-09-08 12:52:00,91.8,56.8,29.77,WNW,287,2.0,8.0,31,0.00,,,0.00,WUHU216DAVISVP2,2013-09-08 19:52:00,
2013-09-08 12:57:00,92.1,57.0,29.76,West,276,3.0,8.0,31,0.00,,,0.00,WUHU216DAVISVP2,2013-09-08 19:57:00,
2013-09-08 13:02:00,92.5,56.5,29.76,NW,318,3.0,9.0,30,0.00,,,0.00,WUHU216DAVISVP2,2013-09-08 20:02:00,
2013-09-08 13:07:00,92.8,55.9,29.76,NW,314,6.0,9.0,29,0.00,,,0.00,WUHU216DAVISVP2,2013-09-08 20:07:00,
2013-09-08 13:12:00,92.7,56.7,29.76,West,263,1.0,9.0,30,0.00,,,0.00,WUHU216DAVISVP2,2013-09-08 20:12:00,
2013-09-08 13:17:00,93.1,57.9,29.76,NNW,329,5.0,9.0,31,0.00,,,0.00,WUHU216DAVISVP2,2013-09-08 20:17:00,
2013-09-08 13:22:00,93.4,57.3,29.75,NW,305,0.0,9.0,30,0.00,,,0.00,WUHU216DAVISVP2,2013-09-08 20:22:00,
2013-09-08 13:27:00,93.9,58.6,29.76,NNW,340,3.0,9.0,31,0.00,,,0.00,WUHU216DAVISVP2,2013-09-08 20:27:00,
2013-09-08 13:32:00,94.5,59.1,29.75,NNW,329,2.0,6.0,31,0.00,,,0.00,WUHU216DAVISVP2,2013-09-08 20:32:00,
2013-09-08 13:37:00,94.8,58.5,29.75,NNW,336,0.0,6.0,30,0.00,,,0.00,WUHU216DAVISVP2,2013-09-08 20:37:00,
2013-09-08 13:42:00,95.1,57.8,29.75,WNW,285,0.0,6.0,29,0.00,,,0.00,WUHU216DAVISVP2,2013-09-08 20:42:00,
2013-09-08 13:47:00,95.5,58.2,29.75,NW,316,0.0,8.0,29,0.00,,,0.00,WUHU216DAVISVP2,2013-09-08 20:47:00,
2013-09-08 13:52:00,95.7,56.4,29.75,West,279,0.0,8.0,27,0.00,,,0.00,WUHU216DAVISVP2,2013-09-08 20:52:00,
2013-09-08 13:57:00,95.9,58.5,29.75,NNW,346,0.0,7.0,29,0.00,,,0.00,WUHU216DAVISVP2,2013-09-08 20:57:00,
2013-09-08 14:02:00,96.2,59.7,29.75,NNW,341,0.0,6.0,30,0.00,,,0.00,WUHU216DAVISVP2,2013-09-08 21:02:00,
2013-09-08 14:07:00,96.4,59.8,29.74,NW,306,0.0,7.0,30,0.00,,,0.00,WUHU216DAVISVP2,2013-09-08 21:07:00,
2013-09-08 14:12:00,96.7,58.2,29.74,WNW,288,0.0,9.0,28,0.00,,,0.00,WUHU216DAVISVP2,2013-09-08 21:12:00,
2013-09-08 14:17:00,96.8,59.2,29.74,NNW,334,0.0,9.0,29,0.00,,,0.00,WUHU216DAVISVP2,2013-09-08 21:17:00,
2013-09-08 14:22:00,97.1,59.5,29.74,North,360,0.0,7.0,29,0.00,,,0.00,WUHU216DAVISVP2,2013-09-08 21:22:00,
2013-09-08 14:27:00,97.2,58.6,29.73,NW,319,5.0,7.0,28,0.00,,,0.00,WUHU216DAVISVP2,2013-09-08 21:27:00,
2013-09-08 14:32:00,97.3,59.7,29.73,NNW,331,4.0,7.0,29,0.00,,,0.00,WUHU216DAVISVP2,2013-09-08 21:32:00,
2013-09-08 14:37:00,97.6,58.9,29.73,NW,320,7.0,10.0,28,0.00,,,0.00,WUHU216DAVISVP2,2013-09-08 21:37:00,
2013-09-08 14:42:00,97.7,59.0,29.73,NNW,338,0.0,10.0,28,0.00,,,0.00,WUHU216DAVISVP2,2013-09-08 21:42:00,
2013-09-08 14:47:00,97.8,58.1,29.72,NNW,335,3.0,7.0,27,0.00,,,0.00,WUHU216DAVISVP2,2013-09-08 21:47:00,
2013-09-08 14:52:00,97.9,58.2,29.72,NW,320,7.0,9.0,27,0.00,,,0.00,WUHU216DAVISVP2,2013-09-08 21:52:00,
2013-09-08 14:57:00,98.0,56.2,29.72,NW,313,0.0,9.0,25,0.00,,,0.00,WUHU216DAVISVP2,2013-09-08 21:57:00,
2013-09-08 15:02:00,98.1,57.4,29.72,NW,323,4.0,8.0,26,0.00,,,0.00,WUHU216DAVISVP2,2013-09-08 22:02:00,
2013-09-08 15:07:00,98.2,58.4,29.72,NW,313,0.0,7.0,27,0.00,,,0.00,WUHU216DAVISVP2,2013-09-08 22:07:00,
2013-09-08 15:12:00,98.3,58.5,29.71,NNW,344,0.0,7.0,27,0.00,,,0.00,WUHU216DAVISVP2,2013-09-08 22:12:00,
2013-09-08 15:17:00,98.5,57.7,29.71,North,5,3.0,9.0,26,0.00,,,0.00,WUHU216DAVISVP2,2013-09-08 22:17:00,
2013-09-08 15:22:00,98.7,57.8,29.71,NNW,340,0.0,9.0,26,0.00,,,0.00,WUHU216DAVISVP2,2013-09-08 22:22:00,
2013-09-08 15:27:00,98.8,58.0,29.71,NE,40,0.0,8.0,26,0.00,,,0.00,WUHU216DAVISVP2,2013-09-08 22:27:00,
2013-09-08 15:32:00,98.9,56.9,29.70,NW,325,6.0,9.0,25,0.00,,,0.00,WUHU216DAVISVP2,2013-09-08 22:32:00,
2013-09-08 15:37:00,98.8,57.9,29.70,North,355,1.0,9.0,26,0.00,,,0.00,WUHU216DAVISVP2,2013-09-08 22:37:00,
2013-09-08 15:42:00,98.8,58.0,29.70,North,5,4.0,9.0,26,0.00,,,0.00,WUHU216DAVISVP2,2013-09-08 22:42:00,
2013-09-08 15:47:00,99.1,58.2,29.70,NNW,340,7.0,9.0,26,0.00,,,0.00,WUHU216DAVISVP2,2013-09-08 22:47:00,
2013-09-08 15:52:00,99.1,57.1,29.70,NW,324,0.0,9.0,25,0.00,,,0.00,WUHU216DAVISVP2,2013-09-08 22:52:00,
2013-09-08 15:57:00,99.2,57.2,29.69,NNE,15,0.0,9.0,25,0.00,,,0.00,WUHU216DAVISVP2,2013-09-08 22:57:00,
2013-09-08 16:02:00,99.3,57.3,29.69,North,355,4.0,7.0,25,0.00,,,0.00,WUHU216DAVISVP2,2013-09-08 23:02:00,
2013-09-08 16:07:00,99.4,56.2,29.69,North,5,4.0,7.0,24,0.00,,,0.00,WUHU216DAVISVP2,2013-09-08 23:07:00,
2013-09-08 16:12:00,99.3,56.1,29.69,NNW,348,1.0,7.0,24,0.00,,,0.00,WUHU216DAVISVP2,2013-09-08 23:12:00,
2013-09-08 16:17:00,99.1,56.0,29.69,NNW,332,0.0,8.0,24,0.00,,,0.00,WUHU216DAVISVP2,2013-09-08 23:17:00,
2013-09-08 16:22:00,99.1,54.8,29.69,NNW,338,5.0,8.0,23,0.00,,,0.00,WUHU216DAVISVP2,2013-09-08 23:22:00,
2013-09-08 16:27:00,99.2,54.9,29.69,NNW,331,1.0,8.0,23,0.00,,,0.00,WUHU216DAVISVP2,2013-09-08 23:27:00,
2013-09-08 16:32:00,99.1,54.8,29.68,NNW,335,6.0,8.0,23,0.00,,,0.00,WUHU216DAVISVP2,2013-09-08 23:32:00,
2013-09-08 16:37:00,98.9,55.8,29.69,NNW,341,3.0,8.0,24,0.00,,,0.00,WUHU216DAVISVP2,2013-09-08 23:37:00,
2013-09-08 16:42:00,98.8,53.4,29.68,NW,313,5.0,7.0,22,0.00,,,0.00,WUHU216DAVISVP2,2013-09-08 23:42:00,
2013-09-08 16:47:00,98.6,51.9,29.69,NW,323,3.0,8.0,21,0.00,,,0.00,WUHU216DAVISVP2,2013-09-08 23:47:00,
2013-09-08 16:52:00,98.5,51.8,29.68,NW,307,3.0,8.0,21,0.00,,,0.00,WUHU216DAVISVP2,2013-09-08 23:52:00,
2013-09-08 16:57:00,98.5,54.3,29.68,NW,316,0.0,7.0,23,0.00,,,0.00,WUHU216DAVISVP2,2013-09-08 23:57:00,
2013-09-08 17:02:00,98.3,55.3,29.68,NW,319,0.0,7.0,24,0.00,,,0.00,WUHU216DAVISVP2,2013-09-09 00:02:00,
2013-09-08 17:07:00,98.2,55.2,29.68,NW,323,0.0,5.0,24,0.00,,,0.00,WUHU216DAVISVP2,2013-09-09 00:07:00,
2013-09-08 17:12:00,98.0,55.0,29.68,WNW,303,3.0,8.0,24,0.00,,,0.00,WUHU216DAVISVP2,2013-09-09 00:12:00,
2013-09-08 17:17:00,97.8,56.0,29.68,NNW,339,1.0,8.0,25,0.00,,,0.00,WUHU216DAVISVP2,2013-09-09 00:17:00,
2013-09-08 17:22:00,97.4,54.5,29.67,NNW,329,2.0,8.0,24,0.00,,,0.00,WUHU216DAVISVP2,2013-09-09 00:22:00,
2013-09-08 17:27:00,97.2,54.4,29.67,NNW,338,4.0,8.0,24,0.00,,,0.00,WUHU216DAVISVP2,2013-09-09 00:27:00,
2013-09-08 17:32:00,97.1,54.3,29.67,NNW,328,0.0,6.0,24,0.00,,,0.00,WUHU216DAVISVP2,2013-09-09 00:32:00,
2013-09-08 17:37:00,97.0,55.3,29.67,NNW,330,5.0,6.0,25,0.00,,,0.00,WUHU216DAVISVP2,2013-09-09 00:37:00,
2013-09-08 17:42:00,96.8,55.1,29.67,North,350,3.0,6.0,25,0.00,,,0.00,WUHU216DAVISVP2,2013-09-09 00:42:00,
2013-09-08 17:47:00,96.5,56.0,29.67,NNW,343,5.0,7.0,26,0.00,,,0.00,WUHU216DAVISVP2,2013-09-09 00:47:00,
2013-09-08 17:52:00,96.3,56.9,29.67,NNW,347,4.0,7.0,27,0.00,,,0.00,WUHU216DAVISVP2,2013-09-09 00:52:00,
2013-09-08 17:57:00,96.2,56.7,29.67,NNW,346,6.0,6.0,27,0.00,,,0.00,WUHU216DAVISVP2,2013-09-09 00:57:00,
2013-09-08 18:02:00,96.0,57.6,29.67,NNW,345,0.0,6.0,28,0.00,,,0.00,WUHU216DAVISVP2,2013-09-09 01:02:00,
2013-09-08 18:07:00,95.9,58.5,29.67,NNW,345,5.0,6.0,29,0.00,,,0.00,WUHU216DAVISVP2,2013-09-09 01:07:00,
2013-09-08 18:12:00,95.8,59.3,29.67,NNW,345,0.0,5.0,30,0.00,,,0.00,WUHU216DAVISVP2,2013-09-09 01:12:00,
2013-09-08 18:17:00,95.8,59.3,29.67,NNW,345,0.0,5.0,30,0.00,,,0.00,WUHU216DAVISVP2,2013-09-09 01:17:00,
2013-09-08 18:22:00,95.5,58.1,29.67,NNW,344,0.0,5.0,29,0.00,,,0.00,WUHU216DAVISVP2,2013-09-09 01:22:00,
2013-09-08 18:27:00,95.3,57.9,29.67,NNW,344,0.0,5.0,29,0.00,,,0.00,WUHU216DAVISVP2,2013-09-09 01:27:00,
2013-09-08 18:32:00,95.1,56.9,29.67,NNW,341,4.0,5.0,28,0.00,,,0.00,WUHU216DAVISVP2,2013-09-09 01:32:00,
2013-09-08 18:37:00,95.0,57.7,29.67,NNW,340,0.0,6.0,29,0.00,,,0.00,WUHU216DAVISVP2,2013-09-09 01:37:00,
2013-09-08 18:42:00,94.8,58.5,29.67,NNW,340,0.0,6.0,30,0.00,,,0.00,WUHU216DAVISVP2,2013-09-09 01:42:00,
2013-09-08 18:47:00,94.7,58.4,29.67,NNW,340,0.0,1.0,30,0.00,,,0.00,WUHU216DAVISVP2,2013-09-09 01:47:00,
2013-09-08 18:52:00,94.5,59.1,29.67,NNW,340,0.0,3.0,31,0.00,,,0.00,WUHU216DAVISVP2,2013-09-09 01:52:00,
2013-09-08 18:57:00,94.3,59.0,29.67,NNW,340,0.0,3.0,31,0.00,,,0.00,WUHU216DAVISVP2,2013-09-09 01:57:00,
2013-09-08 19:02:00,94.0,58.7,29.67,NNW,340,0.0,1.0,31,0.00,,,0.00,WUHU216DAVISVP2,2013-09-09 02:02:00,
2013-09-08 19:07:00,93.5,58.2,29.67,NNW,340,0.0,4.0,31,0.00,,,0.00,WUHU216DAVISVP2,2013-09-09 02:07:00,
2013-09-08 19:12:00,93.0,59.6,29.67,NNW,340,1.0,4.0,33,0.00,,,0.00,WUHU216DAVISVP2,2013-09-09 02:12:00,
2013-09-08 19:17:00,92.6,60.1,29.67,NNW,340,0.0,4.0,34,0.00,,,0.00,WUHU216DAVISVP2,2013-09-09 02:17:00,
2013-09-08 19:22:00,92.1,60.4,29.67,NNW,340,3.0,4.0,35,0.00,,,0.00,WUHU216DAVISVP2,2013-09-09 02:22:00,
2013-09-08 19:27:00,91.7,60.1,29.67,NNW,340,2.0,4.0,35,0.00,,,0.00,WUHU216DAVISVP2,2013-09-09 02:27:00,
2013-09-08 19:32:00,91.3,60.5,29.67,NNW,340,0.0,3.0,36,0.00,,,0.00,WUHU216DAVISVP2,2013-09-09 02:32:00,
2013-09-08 19:37:00,90.8,60.9,29.67,NNW,340,0.0,2.0,37,0.00,,,0.00,WUHU216DAVISVP2,2013-09-09 02:37:00,
2013-09-08 19:42:00,90.3,61.2,29.67,NNW,340,0.0,0.0,38,0.00,,,0.00,WUHU216DAVISVP2,2013-09-09 02:42:00,
2013-09-08 19:47:00,89.7,60.7,29.67,NNW,340,0.0,0.0,38,0.00,,,0.00,WUHU216DAVISVP2,2013-09-09 02:47:00,
2013-09-08 19:52:00,88.9,61.5,29.67,NNW,340,0.0,0.0,40,0.00,,,0.00,WUHU216DAVISVP2,2013-09-09 02:52:00,
2013-09-08 19:57:00,88.2,60.8,29.67,NNW,340,0.0,0.0,40,0.00,,,0.00,WUHU216DAVISVP2,2013-09-09 02:57:00,
2013-09-08 20:02:00,87.4,60.8,29.67,NNW,340,0.0,0.0,41,0.00,,,0.00,WUHU216DAVISVP2,2013-09-09 03:02:00,
2013-09-08 20:07:00,86.8,60.3,29.67,NNW,340,0.0,0.0,41,0.00,,,0.00,WUHU216DAVISVP2,2013-09-09 03:07:00,
2013-09-08 20:12:00,86.1,59.6,29.67,NNW,340,3.0,3.0,41,0.00,,,0.00,WUHU216DAVISVP2,2013-09-09 03:12:00,
2013-09-08 20:17:00,85.8,59.4,29.68,NNW,340,0.0,4.0,41,0.00,,,0.00,WUHU216DAVISVP2,2013-09-09 03:17:00,
2013-09-08 20:22:00,85.5,59.1,29.68,NNW,340,2.0,4.0,41,0.00,,,0.00,WUHU216DAVISVP2,2013-09-09 03:22:00,
2013-09-08 20:27:00,85.2,58.8,29.68,NNW,340,0.0,3.0,41,0.00,,,0.00,WUHU216DAVISVP2,2013-09-09 03:27:00,
2013-09-08 20:32:00,85.0,58.7,29.68,NNW,340,0.0,3.0,41,0.00,,,0.00,WUHU216DAVISVP2,2013-09-09 03:32:00,
2013-09-08 20:37:00,84.7,58.4,29.68,NNW,340,0.0,0.0,41,0.00,,,0.00,WUHU216DAVISVP2,2013-09-09 03:37:00,
2013-09-08 20:42:00,84.3,58.0,29.68,NNW,340,0.0,0.0,41,0.00,,,0.00,WUHU216DAVISVP2,2013-09-09 03:42:00,
2013-09-08 20:47:00,84.0,58.4,29.69,NNW,340,0.0,1.0,42,0.00,,,0.00,WUHU216DAVISVP2,2013-09-09 03:47:00,
2013-09-08 20:52:00,83.7,58.8,29.69,NNW,340,0.0,1.0,43,0.00,,,0.00,WUHU216DAVISVP2,2013-09-09 03:52:00,
2013-09-08 20:57:00,83.4,58.6,29.69,NNW,340,0.0,1.0,43,0.00,,,0.00,WUHU216DAVISVP2,2013-09-09 03:57:00,
2013-09-08 21:01:00,83.3,59.1,29.69,NNW,340,0.0,0.0,44,0.00,,,0.00,WUHU216DAVISVP2,2013-09-09 04:01:00,
2013-09-08 21:02:00,83.3,59.1,29.69,NNW,340,0.0,0.0,44,0.00,,,0.00,WUHU216DAVISVP2,2013-09-09 04:02:00,
2013-09-08 21:07:00,83.0,58.9,29.69,NNW,340,0.0,0.0,44,0.00,,,0.00,WUHU216DAVISVP2,2013-09-09 04:07:00,
2013-09-08 21:12:00,82.7,59.2,29.69,NNW,340,0.0,0.0,45,0.00,,,0.00,WUHU216DAVISVP2,2013-09-09 04:12:00,
2013-09-08 21:17:00,82.4,59.5,29.69,NNW,340,0.0,0.0,46,0.00,,,0.00,WUHU216DAVISVP2,2013-09-09 04:17:00,
2013-09-08 21:22:00,82.1,59.3,29.69,NNW,340,0.0,1.0,46,0.00,,,0.00,WUHU216DAVISVP2,2013-09-09 04:22:00,
2013-09-08 21:27:00,81.8,59.0,29.69,NNW,340,0.0,1.0,46,0.00,,,0.00,WUHU216DAVISVP2,2013-09-09 04:27:00,
2013-09-08 21:32:00,81.4,58.6,29.69,NNW,340,0.0,3.0,46,0.00,,,0.00,WUHU216DAVISVP2,2013-09-09 04:32:00,
2013-09-08 21:37:00,81.3,58.5,29.69,NNW,340,2.0,4.0,46,0.00,,,0.00,WUHU216DAVISVP2,2013-09-09 04:37:00,
2013-09-08 21:42:00,81.3,58.5,29.70,NNW,340,3.0,4.0,46,0.00,,,0.00,WUHU216DAVISVP2,2013-09-09 04:42:00,
2013-09-08 21:47:00,81.4,58.0,29.70,NNW,339,0.0,6.0,45,0.00,,,0.00,WUHU216DAVISVP2,2013-09-09 04:47:00,
2013-09-08 21:52:00,81.4,58.0,29.70,NNW,339,2.0,6.0,45,0.00,,,0.00,WUHU216DAVISVP2,2013-09-09 04:52:00,
2013-09-08 21:57:00,81.4,58.0,29.70,NNW,338,3.0,5.0,45,0.00,,,0.00,WUHU216DAVISVP2,2013-09-09 04:57:00,
2013-09-08 22:02:00,81.5,58.1,29.70,NNW,333,2.0,6.0,45,0.00,,,0.00,WUHU216DAVISVP2,2013-09-09 05:02:00,
2013-09-08 22:07:00,81.5,58.1,29.70,NNW,333,0.0,6.0,45,0.00,,,0.00,WUHU216DAVISVP2,2013-09-09 05:07:00,
2013-09-08 22:12:00,81.5,58.1,29.70,NNW,331,2.0,6.0,45,0.00,,,0.00,WUHU216DAVISVP2,2013-09-09 05:12:00,
2013-09-08 22:17:00,81.5,58.1,29.71,NNW,331,0.0,6.0,45,0.00,,,0.00,WUHU216DAVISVP2,2013-09-09 05:17:00,
2013-09-08 22:22:00,81.4,58.7,29.71,NNW,331,4.0,5.0,46,0.00,,,0.00,WUHU216DAVISVP2,2013-09-09 05:22:00,
2013-09-08 22:27:00,81.3,58.6,29.71,NNW,331,3.0,5.0,46,0.00,,,0.00,WUHU216DAVISVP2,2013-09-09 05:27:00,
2013-09-08 22:32:00,81.2,58.5,29.71,NNW,331,2.0,5.0,46,0.00,,,0.00,WUHU216DAVISVP2,2013-09-09 05:32:00,
2013-09-08 22:37:00,81.0,58.9,29.71,NNW,331,3.0,5.0,47,0.00,,,0.00,WUHU216DAVISVP2,2013-09-09 05:37:00,
2013-09-08 22:42:00,80.9,58.8,29.71,NNW,331,0.0,4.0,47,0.00,,,0.00,WUHU216DAVISVP2,2013-09-09 05:42:00,
2013-09-08 22:47:00,80.7,58.7,29.71,NNW,331,1.0,4.0,47,0.00,,,0.00,WUHU216DAVISVP2,2013-09-09 05:47:00,
2013-09-08 22:52:00,80.5,58.5,29.71,NNW,331,4.0,4.0,47,0.00,,,0.00,WUHU216DAVISVP2,2013-09-09 05:52:00,
2013-09-08 22:57:00,80.4,58.9,29.71,NNW,331,3.0,5.0,48,0.00,,,0.00,WUHU216DAVISVP2,2013-09-09 05:57:00,
2013-09-08 23:02:00,80.2,58.8,29.72,NNW,331,0.0,5.0,48,0.00,,,0.00,WUHU216DAVISVP2,2013-09-09 06:02:00,
2013-09-08 23:07:00,80.0,59.2,29.72,NNW,331,2.0,3.0,49,0.00,,,0.00,WUHU216DAVISVP2,2013-09-09 06:07:00,
2013-09-08 23:12:00,79.8,59.0,29.72,NNW,331,3.0,4.0,49,0.00,,,0.00,WUHU216DAVISVP2,2013-09-09 06:12:00,
2013-09-08 23:17:00,79.6,58.3,29.72,NNW,331,0.0,5.0,48,0.00,,,0.00,WUHU216DAVISVP2,2013-09-09 06:17:00,
2013-09-08 23:22:00,79.5,58.8,29.72,NNW,331,0.0,5.0,49,0.00,,,0.00,WUHU216DAVISVP2,2013-09-09 06:22:00,
2013-09-08 23:27:00,79.3,58.0,29.72,NNW,331,0.0,3.0,48,0.00,,,0.00,WUHU216DAVISVP2,2013-09-09 06:27:00,
2013-09-08 23:32:00,79.2,58.5,29.72,NNW,331,0.0,3.0,49,0.00,,,0.00,WUHU216DAVISVP2,2013-09-09 06:32:00,
2013-09-08 23:37:00,79.0,58.3,29.72,NNW,331,0.0,3.0,49,0.00,,,0.00,WUHU216DAVISVP2,2013-09-09 06:37:00,
2013-09-08 23:42:00,78.7,58.6,29.72,NNW,331,0.0,1.0,50,0.00,,,0.00,WUHU216DAVISVP2,2013-09-09 06:42:00,
2013-09-08 23:47:00,78.4,58.3,29.72,NNW,331,0.0,1.0,50,0.00,,,0.00,WUHU216DAVISVP2,2013-09-09 06:47:00,
2013-09-08 23:52:00,78.3,58.2,29.72,NNW,331,0.0,1.0,50,0.00,,,0.00,WUHU216DAVISVP2,2013-09-09 06:52:00,
2013-09-08 23:57:00,78.1,58.5,29.72,NNW,331,0.0,0.0,51,0.00,,,0.00,WUHU216DAVISVP2,2013-09-09 06:57:00,